TimeEDT,TemperatureF,Dew PointF,Humidity,Sea Level PressureIn,VisibilityMPH,Wind Direction,Wind SpeedMPH,Gust SpeedMPH,PrecipitationIn,Events,Conditions,WindDirDegrees,DateUTC
12:53 AM,44.1,39.0,82,30.41,10.0,Calm,Calm,-,N/A,,Overcast,0,2013-04-27 04:53:00
1:53 AM,45.0,39.9,82,30.41,10.0,North,3.5,-,N/A,,Overcast,10,2013-04-27 05:53:00
2:53 AM,42.1,39.0,89,30.40,10.0,Calm,Calm,-,N/A,,Overcast,0,2013-04-27 06:53:00
3:53 AM,41.0,37.9,89,30.40,10.0,Calm,Calm,-,N/A,,Partly Cloudy,0,2013-04-27 07:53:00
4:53 AM,39.9,37.0,89,30.39,9.0,Calm,Calm,-,N/A,,Clear,0,2013-04-27 08:53:00
5:25 AM,37.4,35.6,93,30.39,2.5,NNW,3.5,-,N/A,,Clear,330,2013-04-27 09:25:00
5:34 AM,37.4,35.6,93,30.39,3.0,NNW,3.5,-,N/A,,Clear,330,2013-04-27 09:34:00
5:41 AM,37.4,35.6,93,30.39,2.0,NNW,3.5,-,N/A,,Clear,330,2013-04-27 09:41:00
5:51 AM,37.4,35.6,93,30.40,6.0,NNW,3.5,-,N/A,,Clear,340,2013-04-27 09:51:00
5:53 AM,37.9,36.0,93,30.39,6.0,Calm,Calm,-,N/A,,Clear,0,2013-04-27 09:53:00
6:53 AM,41.0,39.9,96,30.40,10.0,Calm,Calm,-,N/A,,Clear,0,2013-04-27 10:53:00
7:53 AM,48.0,39.9,74,30.40,10.0,Calm,Calm,-,N/A,,Clear,0,2013-04-27 11:53:00
8:53 AM,53.1,30.9,43,30.40,10.0,Calm,Calm,-,N/A,,Clear,0,2013-04-27 12:53:00
9:53 AM,55.9,33.1,42,30.40,10.0,Variable,3.5,-,N/A,,Clear,0,2013-04-27 13:53:00
10:53 AM,55.9,35.1,45,30.40,10.0,SE,5.8,-,N/A,,Clear,130,2013-04-27 14:53:00
11:53 AM,57.0,34.0,42,30.40,10.0,SSE,10.4,-,N/A,,Clear,150,2013-04-27 15:53:00
12:53 PM,57.0,33.1,40,30.38,10.0,SE,11.5,-,N/A,,Partly Cloudy,140,2013-04-27 16:53:00
1:53 PM,57.0,28.9,34,30.36,10.0,SE,10.4,-,N/A,,Clear,140,2013-04-27 17:53:00
2:53 PM,57.9,30.0,35,30.34,10.0,SE,11.5,-,N/A,,Clear,130,2013-04-27 18:53:00
3:53 PM,57.0,27.0,32,30.32,10.0,SE,12.7,-,N/A,,Clear,140,2013-04-27 19:53:00
4:53 PM,55.0,26.1,33,30.31,10.0,SE,13.8,-,N/A,,Clear,130,2013-04-27 20:53:00
5:53 PM,55.0,28.9,37,30.31,10.0,SE,9.2,-,N/A,,Clear,140,2013-04-27 21:53:00
6:53 PM,53.1,28.9,40,30.30,10.0,SSE,10.4,-,N/A,,Clear,150,2013-04-27 22:53:00
7:53 PM,51.1,34.0,52,30.30,10.0,SE,10.4,-,N/A,,Clear,130,2013-04-27 23:53:00
8:53 PM,48.9,37.0,64,30.30,10.0,SSE,5.8,-,N/A,,Clear,150,2013-04-28 00:53:00
9:53 PM,48.9,37.0,64,30.31,10.0,South,3.5,-,N/A,,Clear,170,2013-04-28 01:53:00
10:53 PM,50.0,34.0,54,30.32,10.0,Calm,Calm,-,N/A,,Overcast,0,2013-04-28 02:53:00
11:53 PM,48.9,35.1,59,30.32,10.0,SW,4.6,-,N/A,,Overcast,230,2013-04-28 03:53:00